Location: Zagreb
(45.8000°N, 16.0000°E)
Time: 20:31:07
(UTC+01:00)

CUTE-I - Pass Details

Date: 03 November 2020
Orbit: 811 x 824 km, 98.7° (Epoch: 01 December)

Event Time Altitude Azimuth Distance (km) Brightness Sun altitude
Rises 05:26:50 0° 24° (NNE) 3,358 ? -13.0°
Reaches altitude 10° 05:29:32 10° 36° (NE) 2,423 ? -12.6°
Maximum altitude 05:34:05 28° 94° (E) 1,508 ? -11.8°
Drops below altitude 10° 05:38:37 10° 152° (SSE) 2,414 ? -11.0°
Sets 05:41:18 0° 164° (SSE) 3,343 ? -10.5°
